• Join FlightAware (Why Join?)
  • Login
  • US Flag 
01:38AM EST


 

Airport Tracker/Info


-or-


 

Live Flight TrackerFlight Track Log ✈ DAL1562 ✈ 26-Apr-2013 ✈ KDTW - KPHL

Flight Track Log - Related Links

Times and Time Zones

All times are in EDT time to prevent confusion due to time zone crossing. See the DAL1562 flight status page for this flight to view local times or setup timezone preferences in your user account.

Time Position Orientation Groundspeed Altitude Reporting Facility
EDT Latitude Longitude Course Direction KTS MPH feet Rate Location/Type
02:33PM 42.2017 -83.3583 90° East 158 182 1,300  Level Cleveland Center
02:34PM 42.1494 -83.3614 182° South 227 261 3,500 2,341 Climbing Cleveland Center
02:35PM 42.0786 -83.3583 178° South 273 314 6,100 2,852 Climbing Cleveland Center
02:36PM 42.2167 -82.8189 90° East  Level FlightAware Approximate
02:36PM 42.0067 -83.3189 158° South 307 353 9,300  Level Cleveland Center
02:37PM 42.2167 -82.6409 90° East  Level FlightAware Approximate
02:37PM 42.0044 -83.2267 92° East 327 376 10,000  Level Cleveland Center
02:38PM 42.2167 -82.4628 90° East  Level FlightAware Approximate
02:38PM 42.0097 -83.0814 87° East 358 412 10,000  Level Cleveland Center
02:39PM 42.0458 -82.9600 68° East 364 419 10,400 1,350 Climbing Cleveland Center
02:40PM 42.0881 -82.8328 66° East 357 411 12,700 1,300 Climbing Cleveland Center
02:41PM 42.1364 -82.7028 63° Northeast 376 433 13,000 600 Climbing Cleveland Center
02:42PM 42.1803 -82.5753 65° Northeast 376 433 13,900 1,700 Climbing Cleveland Center
02:44PM 42.2142 -82.2850 81° East 389 448 18,100 2,033 Climbing Cleveland Center
02:45PM 42.1997 -82.1219 97° East 394 453 20,000 1,650 Climbing Cleveland Center
02:46PM 42.1831 -81.9561 98° East 428 493 21,400 1,400 Climbing Cleveland Center
02:47PM 42.1094 -81.8428 131° Southeast 430 495 22,800 1,350 Climbing Cleveland Center
02:48PM 42.0083 -81.7261 139° Southeast 446 513 24,100 1,300 Climbing Cleveland Center
02:49PM 41.9075 -81.6072 139° Southeast 471 542 25,400 1,200 Climbing Cleveland Center
02:50PM 41.8000 -81.4856 140° Southeast 502 578 26,500 1,300 Climbing Cleveland Center
02:51PM 41.6947 -81.3672 140° Southeast 502 578 28,000 1,400 Climbing Cleveland Center
02:52PM 41.5767 -81.2328 140° Southeast 502 578 29,300 1,300 Climbing Cleveland Center
02:53PM 41.4731 -81.1042 137° Southeast 509 586 30,600 850 Climbing Cleveland Center
02:54PM 41.3736 -80.9622 133° Southeast 509 586 31,000 200 Climbing Cleveland Center
02:55PM 41.2739 -80.8208 133° Southeast 521 600 31,000  Level Cleveland Center
02:56PM 41.1719 -80.6797 134° Southeast 521 600 31,000  Level Cleveland Center
02:57PM 41.0844 -80.5583 134° Southeast 521 600 31,000  Level Cleveland Center
02:58PM 40.9842 -80.4181 133° Southeast 521 600 31,000  Level Cleveland Center
02:59PM 40.8819 -80.2811 135° Southeast 521 600 31,000  Level Cleveland Center
03:00PM 40.7939 -80.1306 128° Southeast 521 600 31,000  Level Cleveland Center
03:01PM 40.7344 -79.9503 113° Southeast 526 605 31,000  Level Cleveland Center
03:02PM 40.6644 -79.7592 116° Southeast 521 600 31,000  Level Cleveland Center
03:03PM 40.5986 -79.5822 116° Southeast 521 600 31,000  Level Cleveland Center
03:04PM 40.5344 -79.4083 116° Southeast 527 606 31,000 -550 Level Cleveland Center
03:05PM 40.4700 -79.2375 116° Southeast 527 606 29,900 -1,000 Descending Cleveland Center
03:06PM 40.4053 -79.0617 116° Southeast 527 606 29,000 -750 Descending Cleveland Center
03:07PM 40.3403 -78.8969 117° Southeast 522 601 28,400 -700 Descending Cleveland Center
03:08PM 40.3000 -78.7211 107° East 510 587 27,600 -800 Descending Cleveland Center
03:09PM 40.2350 -78.5706 119° Southeast 492 566 26,800 -900 Descending Cleveland Center
03:10PM 40.1964 -78.4058 107° East 477 549 25,800 -614 Descending Cleveland Center
03:12PM 40.2683 -78.1192 72° East 445 512 25,000 -271 Descending New York Center
03:13PM 40.3089 -77.9681 71° East 445 512 25,000 -50 Level New York Center
03:14PM 40.3094 -77.7858 90° East 445 512 24,900 -763 Descending New York Center
03:15PM 40.2939 -77.6236 97° East 445 512 23,500 -1,150 Descending New York Center
03:16PM 40.2781 -77.4642 97° East 445 512 22,600 -992 Descending New York Center
03:17PM 40.2600 -77.3044 98° East 445 512 21,500 -942 Descending New York Center
03:18PM 40.2444 -77.1672 98° East 445 512 20,700 -942 Descending New York Center
03:19PM 40.2275 -77.0186 98° East 427 491 19,600 -1,091 Descending New York Center
03:20PM 40.2111 -76.8514 97° East 422 486 18,500 -857 Descending New York Center
03:21PM 40.1950 -76.7194 99° East 411 473 17,900 -850 Descending New York Center
03:22PM 40.1792 -76.5742 98° East 403 464 16,800 -1,587 Descending New York Center
03:23PM 40.1614 -76.4231 99° East 388 447 14,700 -2,150 Descending New York Center
03:24PM 40.1450 -76.2861 99° East 382 440 12,500 -2,067 Descending New York Center
03:25PM 40.1319 -76.1656 98° East 371 427 10,600 -1,261 Descending New York Center
03:26PM 40.1183 -76.0478 99° East 353 406 10,000 -1,190 Descending New York Center
03:27PM 40.1050 -75.9272 98° East 310 357 8,200 -1,059 Descending New York Center
03:28PM 40.0944 -75.8314 98° East 299 344 7,900 -151 Descending New York Center
03:29PM 40.0825 -75.7247 98° East 299 344 7,900  Level New York Center
03:30PM 40.0786 -75.6161 93° East 299 344 7,900  Level New York Center
03:31PM 40.0725 -75.5097 94° East 294 338 7,900 -545 Level New York Center
03:32PM 40.0681 -75.4092 93° East 294 338 6,800 -1,017 Descending New York Center
03:33PM 40.0614 -75.3164 95° East 273 314 5,900 -571 Descending New York Center
03:33PM 40.0500 -75.2667 107° East 264 304 6,000 71 Climbing Philadelphia TRACON
03:34PM 40.0333 -75.1833 105° East 266 306 6,000 -504 Level Philadelphia TRACON
03:35PM 40.0000 -75.1000 118° Southeast 226 260 5,000 -1,450 Descending Philadelphia TRACON
03:36PM 39.9500 -75.0500 143° Southeast 233 268 3,100 -1,900 Descending Philadelphia TRACON